Regional Weather Roundup
Issued by NWS

Home | Current Version | Previous Version | Text Only | Print | Product List | Glossary On
Versions: 1 2 3 4 5 6 7 8 9 10 11 12 13 14 15 16 17 18 19 20 21 22 23 24 25 26 27 28 29 30 31 32 33 34 35 36 37 38 39 40 41 42 43 44 45 46 47 48 49 50
000
ASUS42 KKEY 232110
RWRKEY

FLORIDA REGIONAL WEATHER ROUNDUP FOR THE FLORIDA KEYS
NATIONAL WEATHER SERVICE KEY WEST FLORIDA
400 PM EST TUE JAN 23 2018

...SOUTH FLORIDA AND THE KEYS...

CITY           SKY/WX    TMP DP  RH WIND       PRES   REMARKS
FORT MYERS     LGT RAIN  73  73 100 W8        30.01R FOG
SW REGIONAL AP PTSUNNY   78  72  81 SW14      30.01S
NAPLES         CLOUDY    76  71  85 S10       30.01S
MIAMI          PTSUNNY   81  71  71 SE12      30.00S
WEST KENDALL   FAIR      81  69  67 S6        30.00S
HOMESTEAD      PTSUNNY   82  74  78 SE7       30.00S
MARATHON       FAIR      80  71  74 VRB3      30.00F
KEY WEST INTL  FAIR      78  73  84 E8        30.00F

...INTERNATIONAL WEATHER...

CITY           SKY/WX    TMP DP  RH WIND       PRES   REMARKS
NASSAU BAHAMAS MOSUNNY   82  73  74 SE7       30.03S
CANCUN MEXICO  MOSUNNY   82  70  65 E9        29.97F
COZUMEL MEXICO MOSUNNY   82  72  69 E12       29.94F

ADJACENT COASTAL WATERS...

STATION/POSITION TIME  SKY/WX   TEMP    WIND        PRES    WAVE
                                AIR SEA DIR/SP/G            HT/PER
                 (UTC)          (F)     (DEG/KT/KT) (MB)    (FT/S)
PULASKI SHOAL LI 2100            73      70/  3/  3 1016.0S
SAND KEY         2050            75                 1016.5F
LONG KEY         2000                   150/  5       N/A
MOLASSES REEF    2100            76 74  170/  6/  6 1016.6S
FOWEY ROCKS      2100            76 74  160/ 10/ 11 1016.9S
Buoy 42097       2030               74                N/A     2/ 6

$$



USA.gov is the U.S. government's official web portal to all federal, state and local government web resources and services.